Location: New Frontier Mobile Home Park
(32.8448°N, 116.9675°W)
Time: 21:36:10
(UTC+00:00)

Cosmos 158 Rocket - Pass Details

Date: 14 July 2020
Orbit: 698 x 794 km, 74.0° (Epoch: 05 August)

Event Time Altitude Azimuth Distance (km) Brightness Sun altitude
Exits shadow 04:40:00 10° 196° (SSW) 2,172 6.1 -18.6°
Reaches altitude 10° 04:40:03 10° 196° (SSW) 2,150 6.1 -18.6°
Maximum altitude 04:44:54 88° 287° (WNW) 704 3.7 -19.3°
Drops below altitude 10° 04:49:48 10° 16° (NNE) 2,179 6.7 -20.1°
Sets 04:52:09 0° 17° (NNE) 3,111 7.5 -20.4°
